NS3L-13 Weather Reports


time (UTC)temp
F
wind
direction
speed
knots
gust
knots
rain 1hr
in
rain 24hr
in
rain mn
in
humidity
%
barometer
mb
20260506183012 61 238 4.3 8.7 0.06 0.24 0.24 92 1007.5
20260506182514 60 235 1.7 7.0 0.07 0.24 0.24 92 1007.6
20260506182017 61 182 1.7 4.3 0.07 0.24 0.24 92 1007.6
20260506181504 60 192 2.6 6.1 0.06 0.23 0.23 92 1007.6
20260506180504 60 195 2.6 6.1 0.08 0.22 0.22 92 1007.7
20260506175504 61 224 2.6 7.8 0.07 0.21 0.21 92 1007.7
20260506175004 61 198 3.5 6.1 0.06 0.20 0.20 91 1007.7
20260506174504 61 198 1.7 4.3 0.06 0.20 0.20 91 1007.8
20260506174004 61 160 2.6 6.1 0.05 0.19 0.19 91 1007.7
20260506173504 61 196 1.7 6.1 0.06 0.19 0.19 91 1007.7
20260506173003 61 198 3.5 6.1 0.05 0.18 0.18 91 1007.7
20260506172504 61 194 1.7 8.7 0.04 0.17 0.17 91 1007.8
20260506172004 61 172 2.6 8.7 0.04 0.17 0.17 91 1007.9
20260506171504 61 190 4.3 7.8 0.04 0.17 0.17 91 1007.9
20260506170504 61 171 2.6 8.7 0.02 0.14 0.14 90 1007.9
20260506170004 61 202 4.3 10.4 0.02 0.14 0.14 90 1007.9
20260506165005 61 167 5.2 11.3 0.03 0.14 0.14 90 1007.9
20260506164504 61 186 6.1 14.8 0.04 0.14 0.14 90 1008.0
20260506164004 61 191 4.3 10.4 0.05 0.14 0.14 90 1008.0
20260506163504 61 201 5.2 12.2 0.06 0.13 0.13 90 1008.0
20260506163004 61 207 4.3 12.2 0.06 0.13 0.13 90 1007.9
20260506162504 61 178 4.3 11.3 0.07 0.13 0.13 90 1007.8
20260506162004 61 183 5.2 11.3 0.07 0.13 0.13 90 1007.9
20260506161504 61 180 5.2 12.2 0.08 0.13 0.13 90 1007.7
20260506161004 61 157 7.8 13.0 0.08 0.13 0.13 90 1007.8
20260506160504 61 174 8.7 17.4 0.07 0.12 0.12 90 1007.9
20260506160004 61 160 8.7 14.8 0.07 0.12 0.12 90 1008.0
20260506155504 61 162 6.1 8.7 0.08 0.12 0.12 90 1008.3
20260506155004 61 167 6.1 10.4 0.07 0.11 0.11 90 1008.5
20260506154503 61 202 5.2 10.4 0.07 0.10 0.10 89 1008.8
20260506154004 61 180 5.2 10.4 0.06 0.09 0.09 89 1008.8
20260506153504 62 195 6.1 13.0 0.05 0.07 0.07 89 1009.0
20260506152504 62 175 5.2 13.9 0.06 0.06 0.06 88 1009.0
20260506152004 62 164 6.1 17.4 0.06 0.06 0.06 88 1009.0
20260506151504 62 157 6.1 12.2 0.05 0.05 0.05 88 1008.9
20260506151004 63 151 5.2 12.2 0.05 0.05 0.05 88 1008.7
20260506150504 63 156 5.2 11.3 0.05 0.05 0.05 88 1008.6
20260506150004 63 169 5.2 11.3 0.05 0.05 0.05 87 1008.6
20260506145504 63 210 3.5 10.4 0.04 0.04 0.04 87 1008.6
20260506145004 63 175 4.3 10.4 0.04 0.04 0.04 87 1008.7
20260506144504 63 198 3.5 7.8 0.03 0.03 0.03 86 1008.5
20260506143504 63 191 2.6 7.8 0.02 0.02 0.02 85 1008.8
20260506143004 64 187 2.6 8.7 0.01 0.01 0.01 84 1008.9
20260506142504 64 179 3.5 8.7 0.00 0.00 0.00 83 1008.9
20260506142004 64 216 4.3 10.4 0.00 0.00 0.00 82 1008.9
20260506141504 64 230 4.3 10.4 0.00 0.00 0.00 82 1008.8
20260506141004 64 194 1.7 7.0 0.00 0.00 0.00 82 1008.7
20260506140504 64 161 4.3 12.2 0.00 0.00 0.00 82 1008.8
20260506135504 64 185 6.1 10.4 0.00 0.00 0.00 82 1008.6
20260506135004 64 196 5.2 10.4 0.00 0.00 0.00 81 1008.8
20260506134503 64 225 4.3 10.4 0.00 0.00 0.00 81 1008.7
20260506134004 64 186 4.3 7.8 0.00 0.00 0.00 81 1008.9
20260506133504 64 201 2.6 7.0 0.00 0.00 0.00 80 1008.9
20260506132504 65 212 2.6 7.0 0.00 0.00 0.00 79 1008.9
20260506132005 65 210 4.3 12.2 0.00 0.00 0.00 79 1008.9
20260506131503 65 191 2.6 7.8 0.00 0.00 0.00 78 1009.0
20260506131004 65 220 2.6 8.7 0.00 0.00 0.00 78 1009.0
20260506130504 65 250 5.2 8.7 0.00 0.00 0.00 77 1009.0
20260506125504 66 207 4.3 13.9 0.00 0.00 0.00 75 1009.1
20260506125004 66 195 2.6 11.3 0.00 0.00 0.00 74 1009.0
20260506124504 66 176 3.5 10.4 0.00 0.00 0.00 74 1009.0
20260506124004 66 219 4.3 10.4 0.00 0.00 0.00 74 1008.9
20260506123504 66 213 4.3 10.4 0.00 0.00 0.00 74 1008.9
20260506123004 66 180 5.2 12.2 0.00 0.00 0.00 74 1008.7
20260506122504 66 195 3.5 10.4 0.00 0.00 0.00 74 1008.7
20260506121004 66 198 2.6 10.4 0.00 0.00 0.00 74 1008.7
20260506120504 66 157 3.5 8.7 0.00 0.00 0.00 74 1008.7
20260506120004 66 160 4.3 7.8 0.00 0.00 0.00 74 1008.7
20260506115508 66 165 2.6 10.4 0.00 0.00 0.00 74 1008.8
20260506114503 66 174 4.3 8.7 0.00 0.00 0.00 74 1008.8
20260506114004 66 192 2.6 7.8 0.00 0.00 0.00 74 1008.8
20260506113504 66 183 3.5 8.7 0.00 0.00 0.00 74 1008.8
20260506112504 66 174 3.5 7.8 0.00 0.00 0.00 74 1008.8
20260506111504 66 155 4.3 7.8 0.00 0.00 0.00 73 1008.9
20260506111004 66 165 6.1 10.4 0.00 0.00 0.00 73 1008.8
20260506110504 66 184 5.2 14.8 0.00 0.00 0.00 73 1008.7
20260506105504 66 175 3.5 7.8 0.00 0.00 0.00 74 1008.5
20260506105004 66 158 3.5 8.7 0.00 0.00 0.00 74 1008.4
20260506104504 66 181 4.3 7.8 0.00 0.00 0.00 74 1008.4
20260506104003 66 222 4.3 7.8 0.00 0.00 0.00 74 1008.4
20260506103504 65 208 3.5 10.4 0.00 0.00 0.00 74 1008.2
20260506103004 65 164 4.3 10.4 0.00 0.00 0.00 74 1008.2
20260506101504 65 189 4.3 10.4 0.00 0.00 0.00 74 1008.3
20260506100504 66 164 5.2 8.7 0.00 0.00 0.00 73 1008.2
20260506095004 66 187 3.5 11.3 0.00 0.00 0.00 73 1008.5
20260506094504 66 213 3.5 10.4 0.00 0.00 0.00 72 1008.4
20260506094004 66 166 4.3 10.4 0.00 0.00 0.00 72 1008.3
20260506093505 66 162 3.5 8.7 0.00 0.00 0.00 72 1008.3
20260506092504 66 184 4.3 11.3 0.00 0.00 0.00 71 1008.4
20260506092004 66 168 4.3 11.3 0.00 0.00 0.00 71 1008.3
20260506091503 66 187 4.3 12.2 0.00 0.00 0.00 71 1008.3
20260506091004 66 166 3.5 7.8 0.00 0.00 0.00 70 1008.3
20260506090504 66 179 2.6 12.2 0.00 0.01 0.00 70 1008.4
20260506090007 66 177 5.2 8.7 0.00 0.01 0.00 70 1008.4
20260506085504 66 182 5.2 12.2 0.00 0.01 0.00 70 1008.5
20260506085004 66 175 2.6 7.8 0.00 0.02 0.00 70 1008.5
20260506084503 66 170 4.3 7.8 0.00 0.03 0.00 69 1008.5
20260506084004 66 161 4.3 7.8 0.00 0.03 0.00 69 1008.5
20260506083505 66 186 3.5 12.2 0.00 0.03 0.00 69 1008.6
20260506082504 66 204 2.6 7.8 0.00 0.03 0.00 68 1008.5
20260506082004 66 187 4.3 7.8 0.00 0.03 0.00 68 1008.6
20260506081504 67 163 2.6 7.8 0.00 0.03 0.00 67 1008.6
20260506081005 67 188 4.3 8.7 0.00 0.03 0.00 67 1008.6
20260506073504 67 166 2.6 6.1 0.00 0.03 0.00 65 1008.6
20260506073004 67 209 1.7 5.2 0.00 0.03 0.00 64 1008.6
20260506072504 67 234 2.6 7.0 0.00 0.03 0.00 64 1008.7
20260506072004 67 162 2.6 7.0 0.00 0.03 0.00 64 1008.7
20260506071504 67 206 2.6 7.0 0.00 0.03 0.00 63 1008.8
20260506071004 67 169 4.3 10.4 0.00 0.03 0.00 63 1008.8
20260506070504 67 197 0.9 7.0 0.00 0.03 0.00 63 1008.8
20260506062004 68 179 2.6 7.8 0.00 0.03 0.00 61 1009.1
20260506060504 68 215 4.3 10.4 0.00 0.03 0.00 61 1009.3
20260506051004 68 216 4.3 7.0 0.00 0.03 0.00 60 1009.6
20260506050503 68 171 2.6 7.0 0.00 0.03 0.00 60 1009.6
20260506045004 68 222 1.7 6.1 0.00 0.03 0.00 59 1009.7
20260506044504 68 176 1.7 5.2 0.00 0.03 0.00 58 1009.8
20260506043504 69 173 1.7 4.3 0.00 0.03 0.00 58 1009.7
20260506043004 69 173 0.9 2.6 0.00 0.03 0.00 57 1009.7
20260506042504 69 157 2.6 5.2 0.00 0.03 0.00 57 1009.8
20260506042004 69 188 4.3 11.3 0.00 0.03 0.00 57 1009.8
20260506041503 69 160 2.6 7.8 0.00 0.03 0.00 56 1009.8
20260506041004 69 162 2.6 6.1 0.00 0.03 0.00 56 1009.7
20260506040505 69 167 2.6 6.1 0.00 0.03 0.00 55 1009.7
20260506035504 70 168 2.6 7.8 0.00 0.03 0.03 55 1009.7
20260506035004 70 158 2.6 7.0 0.00 0.03 0.03 54 1009.7
20260506034504 70 192 1.7 7.8 0.00 0.03 0.03 54 1009.7
20260506034004 70 167 5.2 10.4 0.00 0.03 0.03 53 1009.7
20260506033005 71 188 5.2 12.2 0.00 0.03 0.03 53 1009.6
20260506032504 71 187 3.5 10.4 0.00 0.03 0.03 52 1009.6
20260506031503 71 194 5.2 11.3 0.00 0.03 0.03 52 1009.5
20260506031004 71 175 5.2 12.2 0.00 0.03 0.03 51 1009.5
20260506030504 71 164 3.5 10.4 0.00 0.03 0.03 51 1009.5
20260506030004 71 158 4.3 7.8 0.00 0.03 0.03 50 1009.5
20260506025504 71 157 5.2 10.4 0.00 0.03 0.03 50 1009.4
20260506025004 72 164 5.2 10.4 0.00 0.03 0.03 50 1009.4
20260506024504 72 173 4.3 10.4 0.00 0.03 0.03 49 1009.4
20260506023504 72 163 4.3 11.3 0.00 0.03 0.03 48 1009.6
20260506023004 72 179 5.2 10.4 0.00 0.03 0.03 48 1009.6
20260506022004 73 157 5.2 10.4 0.00 0.03 0.03 48 1009.5
20260506021504 73 182 4.3 8.7 0.00 0.03 0.03 47 1009.5
20260506020504 74 162 7.0 12.2 0.00 0.03 0.03 46 1009.4
20260506020004 74 168 5.2 13.0 0.00 0.03 0.03 45 1009.4
20260506015504 74 169 7.8 15.6 0.00 0.03 0.03 45 1009.4
20260506015004 74 168 7.0 13.0 0.00 0.03 0.03 45 1009.4
20260506014003 74 162 6.1 11.3 0.00 0.03 0.03 44 1009.3
20260506013503 74 186 4.3 10.4 0.00 0.03 0.03 43 1009.3
20260506013003 75 159 5.2 10.4 0.00 0.03 0.03 43 1009.2
20260506012504 75 180 5.2 11.3 0.00 0.03 0.03 42 1009.1
20260506012004 75 169 5.2 12.2 0.00 0.03 0.03 42 1009.0
20260506011504 75 167 5.2 13.0 0.00 0.03 0.03 42 1009.0
20260506011004 75 163 5.2 10.4 0.00 0.03 0.03 43 1008.9
20260506010504 75 182 7.8 13.0 0.00 0.03 0.03 42 1008.9
20260506010004 75 166 6.1 12.2 0.00 0.03 0.03 42 1008.8
20260506005504 75 157 7.0 13.9 0.00 0.03 0.03 42 1008.7
20260506005004 75 166 6.1 11.3 0.00 0.03 0.03 41 1008.7
20260506004504 76 191 5.2 10.4 0.00 0.03 0.03 41 1008.7
20260506004004 76 172 6.1 11.3 0.00 0.03 0.03 41 1008.7
20260506002004 76 190 7.0 17.4 0.00 0.03 0.03 40 1008.4
20260506001505 76 176 3.5 13.9 0.00 0.03 0.03 40 1008.3
20260506001004 76 159 6.1 12.2 0.00 0.03 0.03 40 1008.2
20260506000504 76 168 4.3 12.2 0.00 0.03 0.03 40 1008.3
20260506000003 77 183 5.2 11.3 0.00 0.03 0.03 40 1008.3
20260505235504 77 183 7.8 13.9 0.00 0.03 0.03 39 1008.3
20260505235004 77 176 4.3 8.7 0.00 0.03 0.03 40 1008.2
20260505234503 77 164 4.3 10.4 0.00 0.03 0.03 39 1008.1
20260505234003 77 199 7.8 17.4 0.00 0.03 0.03 39 1008.1
20260505233503 77 170 7.8 12.2 0.00 0.03 0.03 38 1008.0
20260505232504 78 147 5.2 10.4 0.00 0.03 0.03 37 1008.1
20260505232004 78 186 6.1 13.0 0.00 0.03 0.03 37 1008.1
20260505231504 78 203 7.0 12.2 0.00 0.03 0.03 37 1008.0
20260505231003 78 194 6.1 18.2 0.00 0.03 0.03 37 1008.0
20260505230509 78 219 7.8 18.2 0.00 0.03 0.03 37 1008.0
20260505230004 78 186 5.2 12.2 0.00 0.03 0.03 37 1007.9
20260505225506 79 205 6.1 18.2 0.00 0.03 0.03 37 1007.9
20260505225004 79 191 8.7 20.9 0.00 0.03 0.03 36 1007.8
20260505224504 79 185 10.4 17.4 0.00 0.03 0.03 36 1007.8
20260505224004 80 216 7.8 19.1 0.00 0.03 0.03 36 1007.8
20260505223504 80 180 4.3 13.9 0.00 0.03 0.03 38 1007.8
20260505223004 79 193 7.8 14.8 0.00 0.03 0.03 37 1007.7
20260505221504 79 203 6.1 17.4 0.00 0.03 0.03 37 1007.5
20260505221004 80 168 7.8 17.4 0.00 0.03 0.03 37 1007.6
20260505220504 80 159 10.4 17.4 0.00 0.03 0.03 37 1007.5
20260505220004 80 182 5.2 15.6 0.00 0.03 0.03 37 1007.5
20260505215504 80 166 5.2 13.9 0.00 0.03 0.03 37 1007.5
20260505215004 80 179 8.7 17.4 0.00 0.03 0.03 37 1007.6
20260505214504 80 205 5.2 17.4 0.00 0.03 0.03 37 1007.6
20260505213504 80 196 7.8 17.4 0.00 0.03 0.03 37 1007.6
20260505213004 80 171 4.3 13.9 0.00 0.03 0.03 38 1007.7
20260505212504 80 167 6.1 15.6 0.00 0.03 0.03 37 1007.5
20260505211504 80 164 7.8 21.7 0.00 0.03 0.03 36 1007.6
20260505210504 80 189 10.4 17.4 0.00 0.03 0.03 36 1007.5
20260505210003 80 173 9.6 17.4 0.00 0.03 0.03 37 1007.4
20260505205503 80 195 8.7 17.4 0.00 0.03 0.03 36 1007.4
20260505205004 80 194 9.6 17.4 0.00 0.03 0.03 35 1007.5
20260505204504 81 183 8.7 17.4 0.00 0.03 0.03 35 1007.4
20260505204004 80 196 6.1 13.0 0.00 0.03 0.03 37 1007.3
20260505203004 81 195 7.8 19.1 0.00 0.03 0.03 35 1007.3
20260505202504 81 202 5.2 15.6 0.00 0.03 0.03 35 1007.5
20260505202004 81 200 10.4 17.4 0.00 0.03 0.03 34 1007.4
20260505201504 81 176 7.8 15.6 0.00 0.03 0.03 35 1007.6
20260505201004 81 199 5.2 13.9 0.00 0.03 0.03 36 1007.5
20260505200504 81 184 7.0 13.9 0.00 0.03 0.03 35 1007.5
20260505195504 81 203 9.6 17.4 0.00 0.03 0.03 36 1007.6
20260505195004 81 178 8.7 17.4 0.00 0.03 0.03 35 1007.6
20260505194504 82 173 5.2 13.0 0.00 0.03 0.03 36 1007.6
20260505194005 81 215 4.3 18.2 0.00 0.03 0.03 37 1007.7
20260505193505 81 167 7.8 17.4 0.00 0.03 0.03 37 1007.6
20260505193004 81 172 10.4 22.6 0.00 0.03 0.03 36 1007.7
20260505192004 81 174 10.4 17.4 0.00 0.03 0.03 36 1007.6
20260505191004 81 175 9.6 19.1 0.00 0.03 0.03 36 1007.7
20260505190506 81 205 6.1 13.9 0.00 0.03 0.03 35 1007.8
20260505190004 81 182 7.8 14.8 0.00 0.03 0.03 35 1007.9
20260505185504 81 184 8.7 15.6 0.00 0.03 0.03 36 1007.9
20260505185004 81 193 5.2 13.9 0.00 0.03 0.03 37 1008.0
20260505184504 82 228 7.8 15.6 0.00 0.03 0.03 36 1008.1
20260505184005 82 218 6.1 13.9 0.00 0.03 0.03 37 1008.1
20260505183504 82 209 7.8 14.8 0.00 0.03 0.03 35 1008.3